Location: Newark
(7.0858°N, 171.3717°E)
Time: 15:28:27
(UTC+00:00)

Courier 1B Rocket - Pass Details

Date: 01 December 2020
Orbit: 920 x 1202 km, 28.2° (Epoch: 20 January)

Event Time Altitude Azimuth Distance (km) Brightness Sun altitude
Rises 17:55:25 0° 296° (WNW) 4,065 - -9.2°
Exits shadow 17:58:37 - 310° (NW) 3,324 7.2 -8.5°
Reaches altitude 10° 17:59:42 10° 317° (NW) 3,121 7.1 -8.2°
Maximum altitude 18:04:05 16° 352° (N) 2,713 7.1 -7.2°
Drops below altitude 10° 18:08:27 10° 26° (NNE) 3,113 7.7 -6.2°
Sets 18:12:44 0° 47° (NE) 4,050 8.6 -5.2°
